Weather History for Jersey, United Kingdom

Change the Weather History Date:

Monday, December 30, 2013

  Actual Average Record
Temperature  
Mean Temperature 48 °F -  
Max Temperature 52 °F 45 °F 55 °F (2006)
Min Temperature 45 °F 39 °F 32 °F (1996)
Degree Days  
Heating Degree Days 16    
Moisture  
Dew Point 46 °F    
Average Humidity 87    
Maximum Humidity 95    
Minimum Humidity 74    
Precipitation  
Precipitation 0.00 in - - ()
Sea Level Pressure  
Sea Level Pressure 29.93 in    
Wind  
Wind Speed 19 mph ()    
Max Wind Speed 36 mph    
Max Gust Speed 48 mph    
Visibility 8.1 miles    
Events Rain    
Averages and records for this station are not official NWS values.
T = Trace of Precipitation, MM = Missing Value Source: Averaged Metar Reports

Daily Weather History Graph

Daily Weather History Graph

Search for Another Location

Airport:

Trip Planner

Search our weather history database for the weather conditions in past years. The results will help you decide how hot, cold, wet, or windy it might be!

Date:

Astronomy

Dec. 30, 2013 Rise Set
Actual Time 8:03 AM GMT 4:19 PM GMT
Civil Twilight 7:26 AM GMT 4:56 PM GMT
Nautical Twilight 6:45 AM GMT 5:37 PM GMT
Astronomical Twilight 6:06 AM GMT 6:16 PM GMT
Moon 5:32 AM GMT (12/30) 2:42 PM GMT (12/30)
Length of Visible Light 9h 30m
Length of Day
8h 15m
Waning Crescent, 6% of the Moon is Illuminated
Dec 30
Waning Crescent
Jan 1
New
Jan 8
First Quarter
Jan 16
Full
Jan 24
Last Quarter

Hourly Weather History & Observations

Time (GMT) Temp. Windchill Dew Point Humidity Pressure Visibility Wind Dir Wind Speed Gust Speed Precip Events Conditions
12:00 AM 47 °F - 44 °F 86% 30.10 in 19 mi South 19.6 mph - -   Overcast
1:00 AM 48 °F - 46 °F 88% 30.06 in 16 mi South 19.6 mph - -   Overcast
2:00 AM 49 °F - 46 °F 84% 30.04 in 12 mi South 23.0 mph - -   Overcast
3:00 AM 49 °F - 46 °F 87% 30.02 in 9 mi South 23.0 mph - - Rain Light Rain
3:50 AM 48.2 °F - 46.4 °F 93% 29.98 in 6.2 mi South 20.7 mph - N/A Rain Light Rain
4:00 AM 49 °F - 47 °F 90% 30.00 in 9 mi South 21.9 mph - - Rain Light Rain
4:20 AM 50.0 °F - 46.4 °F 87% 29.98 in 6.2 mi South 26.5 mph - N/A   Mostly Cloudy
4:50 AM 50.0 °F - 46.4 °F 87% 29.95 in 6.2 mi South 23.0 mph - N/A   Scattered Clouds
5:00 AM 49 °F - 47 °F 90% 29.96 in 9 mi South 24.2 mph - - Rain Light Rain
5:20 AM 50.0 °F - 46.4 °F 87% 29.95 in 6.2 mi South 28.8 mph - N/A   Partly Cloudy
5:50 AM 50.0 °F - 46.4 °F 87% 29.92 in 6.2 mi South 32.2 mph - N/A   Partly Cloudy
6:00 AM 50 °F - 47 °F 85% 29.94 in 9 mi South 27.6 mph - -   Partly Cloudy
6:20 AM 50.0 °F - 46.4 °F 87% 29.89 in 6.2 mi South 31.1 mph - N/A   Mostly Cloudy
6:50 AM 50.0 °F - 46.4 °F 87% 29.89 in 6.2 mi South 26.5 mph 39.1 mph N/A   Mostly Cloudy
7:00 AM 50 °F - 47 °F 84% 29.91 in 9 mi South 25.3 mph - -   Overcast
7:20 AM 50.0 °F - 46.4 °F 87% 29.89 in 6.2 mi South 19.6 mph 38.0 mph N/A   Mostly Cloudy
7:50 AM 50.0 °F - 46.4 °F 87% 29.89 in 6.2 mi South 26.5 mph - N/A Rain Light Rain
8:00 AM 50 °F - 47 °F 85% 29.89 in 9 mi South 25.3 mph - - Rain Light Rain
8:20 AM 50.0 °F - 46.4 °F 87% 29.86 in 6.2 mi South 33.4 mph - N/A   Mostly Cloudy
8:50 AM 50.0 °F - 46.4 °F 87% 29.86 in 6.2 mi South 35.7 mph - N/A Rain Light Rain
9:00 AM 50 °F - 46 °F 82% 29.87 in 7 mi South 32.2 mph - - Rain Light Rain
9:20 AM 50.0 °F - 46.4 °F 87% 29.86 in 5.0 mi South 28.8 mph - N/A Rain Rain
9:50 AM 50.0 °F - 46.4 °F 87% 29.86 in 5.0 mi South 32.2 mph - N/A Rain Rain
10:00 AM 49 °F - 47 °F 90% 29.86 in 5 mi South 28.8 mph - - Rain Rain
10:20 AM 50.0 °F - 46.4 °F 87% 29.86 in 5.0 mi SSW 24.2 mph 40.3 mph N/A Rain Rain
10:50 AM 50.0 °F - 46.4 °F 87% 29.86 in 3.7 mi SSW 17.3 mph 38.0 mph N/A Rain Rain
11:00 AM 50 °F - 47 °F 87% 29.87 in 4 mi South 35.7 mph - - Rain Rain
11:20 AM 50.0 °F - 48.2 °F 94% 29.89 in 3.7 mi SW 32.2 mph 48.3 mph N/A Rain Rain
11:50 AM 50.0 °F - 46.4 °F 87% 29.89 in 6.2 mi WSW 17.3 mph - N/A   Partly Cloudy
12:00 PM 50 °F - 47 °F 84% 29.91 in 9 mi WSW 18.4 mph - - Rain Light Rain
12:20 PM 50.0 °F - 46.4 °F 87% 29.89 in 6.2 mi West 15.0 mph - N/A   Mostly Cloudy
12:50 PM 51.8 °F - 46.4 °F 82% 29.92 in 6.2 mi West 15.0 mph - N/A   Partly Cloudy
1:00 PM 51 °F - 47 °F 81% 29.92 in 12 mi West 13.8 mph - -   Scattered Clouds
1:20 PM 51.8 °F - 46.4 °F 82% 29.92 in 6.2 mi West 15.0 mph - N/A   Partly Cloudy
1:50 PM 51.8 °F - 46.4 °F 82% 29.92 in 6.2 mi WSW 25.3 mph - N/A   Scattered Clouds
2:00 PM 52 °F - 46 °F 74% 29.93 in 16 mi WSW 15.0 mph - -   Partly Cloudy
2:20 PM 50.0 °F - 44.6 °F 82% 29.92 in 6.2 mi West 17.3 mph - N/A   Partly Cloudy
2:50 PM 50.0 °F - 44.6 °F 82% 29.92 in 6.2 mi West 12.7 mph - N/A   Partly Cloudy
3:00 PM 50 °F - 45 °F 76% 29.94 in 19 mi West 13.8 mph - -   Scattered Clouds
3:20 PM 50.0 °F - 44.6 °F 82% 29.95 in 6.2 mi WSW 13.8 mph - N/A   Partly Cloudy
3:50 PM 50.0 °F - 44.6 °F 82% 29.95 in 6.2 mi WSW 12.7 mph - N/A   Partly Cloudy
4:00 PM 49 °F - 45 °F 82% 29.96 in 19 mi WSW 12.7 mph - -   Scattered Clouds
4:20 PM 48.2 °F - 44.6 °F 87% 29.95 in 6.2 mi WSW 12.7 mph - N/A   Partly Cloudy
4:50 PM 48.2 °F - 44.6 °F 87% 29.95 in 6.2 mi SW 9.2 mph - N/A   Partly Cloudy
5:00 PM 48 °F - 44 °F 82% 29.96 in 16 mi WSW 10.4 mph - -   Scattered Clouds
5:20 PM 46.4 °F 42.4 °F 42.8 °F 87% 29.95 in 6.2 mi SSW 8.1 mph - N/A   Partly Cloudy
5:50 PM 46.4 °F 42.9 °F 42.8 °F 87% 29.95 in 6.2 mi South 6.9 mph - N/A   Partly Cloudy
6:00 PM 47 °F - 44 °F 83% 29.96 in 16 mi SSW 9.2 mph - -   Scattered Clouds
6:20 PM 46.4 °F 42.9 °F 44.6 °F 93% 29.95 in 6.2 mi South 6.9 mph - N/A   Partly Cloudy
6:50 PM 46.4 °F 42.4 °F 44.6 °F 93% 29.95 in 6.2 mi SSE 8.1 mph - N/A   Partly Cloudy
7:00 PM 45 °F - 43 °F 89% 29.96 in 16 mi SSE 8.1 mph - -   Scattered Clouds
7:20 PM 46.4 °F 42.4 °F 44.6 °F 93% 29.95 in 6.2 mi SSE 8.1 mph - N/A   Partly Cloudy
7:50 PM 48.2 °F - 46.4 °F 93% 29.92 in 6.2 mi South 10.4 mph - N/A   Partly Cloudy
8:00 PM 48 °F - 46 °F 90% 29.94 in 16 mi SSE 10.4 mph - -   Scattered Clouds
8:20 PM 48.2 °F - 44.6 °F 87% 29.92 in 6.2 mi SSE 9.2 mph - N/A   Partly Cloudy
8:50 PM 48.2 °F - 46.4 °F 93% 29.92 in 6.2 mi South 13.8 mph - N/A   Partly Cloudy
9:00 PM 48 °F - 47 °F 93% 29.92 in 7 mi South 15.0 mph - -   Scattered Clouds
10:00 PM 48 °F - 47 °F 94% 29.92 in 4 mi South 16.1 mph - -   Mist
11:00 PM 48 °F - 47 °F 95% 29.90 in 5 mi South 16.1 mph - -   Mist